Location: Brede
(50.9167°N, 0.6000°E)
Time: 09:47:01
(UTC+00:00)

Tiros 1 - Pass Details

Date: 02 December 2020
Orbit: 630 x 663 km, 48.4° (Epoch: 16 January)

Event Time Altitude Azimuth Distance (km) Brightness Sun altitude
Rises 18:08:49 0° 276° (W) 2,994 11.9 -20.3°
Reaches altitude 10° 18:11:13 10° 272° (W) 2,077 10.9 -20.7°
Maximum altitude 18:15:51 50° 197° (SSW) 838 7.8 -21.4°
Enters shadow 18:17:32 34° 144° (SE) 1,085 8.0 -21.6°
